Weather History for KVQQ - April, 2014

Change the Weather History Date:

Wednesday, April 30, 2014

  Actual Average (KJAX) Record (KJAX)
Temperature  
Mean Temperature 73 °F 70 °F  
Max Temperature 82 °F 82 °F 93 °F (1991)
Min Temperature 64 °F 58 °F 42 °F (1874)
Degree Days  
Heating Degree Days 0 1  
Month to date heating degree days 56  
Since 1 July heating degree days 1344  
Cooling Degree Days 8 6  
Month to date cooling degree days 113  
Year to date cooling degree days 196  
Growing Degree Days 23 (Base 50)    
Moisture  
Dew Point 67 °F    
Average Humidity 86    
Maximum Humidity 100    
Minimum Humidity 54    
Precipitation  
Precipitation 0.00 in 0.07 in 2.39 in (1912)
Month to date precipitation 2.64  
Year to date precipitation 13.08  
Snow  
Snow 0.00 in 0.00 in 0.00 in (2002)
Month to date snowfall 0.0  
Since 1 July snowfall T  
Snow Depth -    
Sea Level Pressure  
Sea Level Pressure 30.00 in    
Wind  
Wind Speed 4 mph (South)    
Max Wind Speed 12 mph    
Max Gust Speed -    
Visibility 9 miles    
Events Rain    
T = Trace of Precipitation, MM = Missing Value Source: NWS Daily Summary

Daily Weather History Graph

Daily Weather History Graph

Search for Another Location

Airport or City:

Trip Planner

Search our weather history database for the weather conditions in past years. The results will help you decide how hot, cold, wet, or windy it might be!

Date:

Astronomy

Apr. 30, 2014 Rise Set
Actual Time 6:45 AM EDT 8:04 PM EDT
Civil Twilight 6:19 AM EDT 8:30 PM EDT
Nautical Twilight 5:49 AM EDT 9:00 PM EDT
Astronomical Twilight 5:18 AM EDT 9:31 PM EDT
Moon 7:47 AM EDT (4/30) 9:38 PM EDT (4/30)
Length of Visible Light 14h 10m
Length of Day
13h 19m
New Moon, 2% of the Moon is Illuminated
Apr 30
New Moon
May 6
First Quarter
May 14
Full
May 21
Last Quarter
May 28
New

Hourly Weather History & Observations

Time (EDT) Temp. Heat Index Dew Point Humidity Pressure Visibility Wind Dir Wind Speed Gust Speed Precip Events Conditions
12:15 AM 68.0 °F - 66.2 °F 94% 29.97 in 10.0 mi South 6.9 mph - N/A   Clear
12:35 AM 68.0 °F - 66.2 °F 94% 29.98 in 10.0 mi South 5.8 mph - N/A   Clear
12:55 AM 68.0 °F - 66.2 °F 94% 29.98 in 10.0 mi South 3.5 mph - N/A   Clear
1:15 AM 68.0 °F - 66.2 °F 94% 29.97 in 10.0 mi SSE 4.6 mph - N/A   Clear
1:35 AM 68.0 °F - 66.2 °F 94% 29.97 in 10.0 mi South 4.6 mph - N/A   Clear
1:55 AM 68.0 °F - 66.2 °F 94% 29.97 in 10.0 mi Calm Calm - N/A   Clear
2:15 AM 68.0 °F - 66.2 °F 94% 29.96 in 10.0 mi SE 3.5 mph - N/A   Clear
2:35 AM 68.0 °F - 66.2 °F 94% 29.95 in 10.0 mi Calm Calm - N/A   Clear
2:55 AM 66.2 °F - 66.2 °F 100% 29.95 in 10.0 mi Calm Calm - N/A   Clear
3:15 AM 66.2 °F - 66.2 °F 100% 29.95 in 10.0 mi Calm Calm - N/A   Clear
3:35 AM 66.2 °F - 64.4 °F 94% 29.96 in 10.0 mi Calm Calm - N/A   Clear
3:55 AM 64.4 °F - 64.4 °F 100% 29.96 in 4.0 mi Calm Calm - N/A   Clear
4:15 AM 66.2 °F - 64.4 °F 94% 29.97 in 8.0 mi Calm Calm - N/A   Clear
4:35 AM 66.2 °F - 66.2 °F 100% 29.96 in 10.0 mi East 3.5 mph - N/A   Clear
4:55 AM 66.2 °F - 66.2 °F 100% 29.96 in 10.0 mi Calm Calm - N/A   Clear
5:15 AM 68.0 °F - 66.2 °F 94% 29.97 in 10.0 mi Calm Calm - N/A   Clear
5:35 AM 66.2 °F - 66.2 °F 100% 29.98 in 10.0 mi Calm Calm - N/A   Clear
5:55 AM 66.2 °F - 66.2 °F 100% 29.99 in 10.0 mi Calm Calm - N/A   Clear
6:15 AM 68.0 °F - 66.2 °F 94% 30.00 in 10.0 mi Calm Calm - N/A   Clear
6:35 AM 68.0 °F - 66.2 °F 94% 30.01 in 10.0 mi Calm Calm - N/A   Clear
6:50 AM 68.0 °F - 66.2 °F 94% 30.01 in 10.0 mi SE 4.6 mph - N/A   Scattered Clouds
7:50 AM 68.0 °F - 68.0 °F 100% 30.01 in 10.0 mi SE 4.6 mph - N/A   Clear
8:50 AM 73.4 °F - 69.8 °F 88% 30.04 in 7.0 mi South 5.8 mph - N/A   Scattered Clouds
9:10 AM 73.4 °F - 69.8 °F 88% 30.05 in 7.0 mi South 6.9 mph - N/A   Mostly Cloudy
9:25 AM 73.4 °F - 71.6 °F 94% 30.06 in 7.0 mi South 6.9 mph - N/A   Mostly Cloudy
10:50 AM 77.0 °F - 71.6 °F 83% 30.07 in 7.0 mi South 8.1 mph - N/A   Partly Cloudy
11:50 AM 80.6 °F 84.6 °F 71.6 °F 74% 30.08 in 7.0 mi West 11.5 mph - N/A   Mostly Cloudy
12:50 PM 80.6 °F 83.9 °F 69.8 °F 70% 30.08 in 7.0 mi West 8.1 mph - N/A   Mostly Cloudy
1:50 PM 82.4 °F 85.4 °F 68.0 °F 62% 30.07 in 7.0 mi Variable 5.8 mph - N/A   Mostly Cloudy
2:50 PM 82.4 °F 83.9 °F 64.4 °F 54% 30.07 in 7.0 mi NW 6.9 mph - N/A   Mostly Cloudy
3:50 PM 82.4 °F 83.9 °F 64.4 °F 54% 30.04 in 7.0 mi NW 9.2 mph - N/A   Mostly Cloudy
4:50 PM 80.6 °F 82.3 °F 64.4 °F 58% 30.04 in 7.0 mi NNW 4.6 mph - N/A   Mostly Cloudy
5:50 PM 80.6 °F 82.3 °F 64.4 °F 58% 30.03 in 7.0 mi Variable 4.6 mph - N/A   Mostly Cloudy
6:50 PM 80.6 °F 82.7 °F 66.2 °F 61% 30.00 in 7.0 mi SW 4.6 mph - N/A   Mostly Cloudy
7:50 PM 77.0 °F - 66.2 °F 69% 30.02 in 7.0 mi SSW 5.8 mph - N/A   Mostly Cloudy
8:15 PM 75.2 °F - 66.2 °F 73% 30.01 in 10.0 mi Calm Calm - N/A   Clear
8:35 PM 73.4 °F - 66.2 °F 78% 30.01 in 10.0 mi Calm Calm - N/A   Clear
8:55 PM 73.4 °F - 66.2 °F 78% 30.01 in 10.0 mi Calm Calm - N/A   Clear
9:15 PM 73.4 °F - 66.2 °F 78% 30.00 in 10.0 mi SSE 3.5 mph - N/A   Clear
9:35 PM 73.4 °F - 69.8 °F 88% 30.00 in 10.0 mi SSE 6.9 mph - N/A   Clear
9:55 PM 73.4 °F - 71.6 °F 94% 29.98 in 10.0 mi SSE 8.1 mph - N/A   Clear
10:15 PM 73.4 °F - 69.8 °F 88% 29.99 in 10.0 mi SSE 8.1 mph - N/A   Clear
10:35 PM 71.6 °F - 69.8 °F 94% 29.98 in 10.0 mi South 5.8 mph - N/A   Clear
11:15 PM 71.6 °F - 68.0 °F 88% 30.00 in 10.0 mi South 3.5 mph - N/A   Clear
11:35 PM 69.8 °F - 68.0 °F 94% 29.99 in 10.0 mi Calm Calm - N/A   Clear
11:55 PM 69.8 °F - 68.0 °F 94% 29.99 in 10.0 mi Calm Calm - N/A Rain Light Rain